Hourly Weather Kissimmee

Today, 30 July, Friday

Time Temperature Precipitation Wind Pressure Humidity
00:00 +28°C° 0 mm 2 mps 760 mmHg 75%
01:00 +28°C° 0 mm 2 mps 760 mmHg 77%
02:00 +28°C° 0 mm 2 mps 760 mmHg 78%
03:00 +27°C° 0 mm 2 mps 760 mmHg 79%
04:00 +27°C° 0 mm 1 mps 759 mmHg 80%
05:00 +27°C° 0 mm 1 mps 760 mmHg 80%
06:00 +28°C° 0 mm 1 mps 760 mmHg 79%
07:00 +28°C° 0 mm 1 mps 760 mmHg 78%
08:00 +30°C° 0 mm 1 mps 761 mmHg 71%
09:00 +32°C° 0 mm 2 mps 761 mmHg 63%
10:00 +34°C° 0 mm 2 mps 761 mmHg 55%
11:00 +35°C° 0 mm 3 mps 761 mmHg 51%
12:00 +36°C° 0 mm 3 mps 761 mmHg 48%
13:00 +37°C° 0 mm 3 mps 760 mmHg 44%
14:00 +37°C° 0 mm 3 mps 760 mmHg 45%
15:00 +37°C° 0 mm 3 mps 760 mmHg 45%
16:00 +37°C° 0 mm 3 mps 759 mmHg 46%
17:00 +35°C° 0 mm 3 mps 760 mmHg 50%
18:00 +34°C° 0 mm 3 mps 760 mmHg 55%
19:00 +33°C° 0 mm 3 mps 760 mmHg 59%
20:00 +31°C° 0 mm 3 mps 760 mmHg 62%
21:00 +30°C° 0 mm 3 mps 761 mmHg 64%
22:00 +29°C° 0 mm 2 mps 761 mmHg 67%
23:00 +29°C° 0 mm 2 mps 761 mmHg 69%

Tomorrow, 31 July, Saturday

Time Temperature Precipitation Wind Pressure Humidity
00:00 +29°C° 0 mm 2 mps 761 mmHg 72%
01:00 +28°C° 0 mm 2 mps 761 mmHg 74%
02:00 +28°C° 0 mm 2 mps 761 mmHg 75%
03:00 +28°C° 0 mm 2 mps 761 mmHg 76%
04:00 +27°C° 0 mm 2 mps 761 mmHg 77%
05:00 +28°C° 0 mm 2 mps 761 mmHg 77%
06:00 +28°C° 0 mm 2 mps 761 mmHg 78%
07:00 +28°C° 0 mm 2 mps 761 mmHg 78%
08:00 +30°C° 0 mm 2 mps 761 mmHg 70%
09:00 +33°C° 0 mm 3 mps 762 mmHg 62%
10:00 +34°C° 0 mm 3 mps 762 mmHg 54%
11:00 +35°C° 0 mm 3 mps 761 mmHg 50%
12:00 +36°C° 0 mm 3 mps 761 mmHg 47%
13:00 +37°C° 0 mm 3 mps 761 mmHg 43%
14:00 +38°C° 0 mm 4 mps 760 mmHg 42%
15:00 +38°C° 0 mm 4 mps 760 mmHg 42%
16:00 +38°C° 0 mm 4 mps 760 mmHg 41%
17:00 +36°C° 0 mm 4 mps 760 mmHg 46%
18:00 +35°C° 0 mm 4 mps 760 mmHg 52%
19:00 +33°C° 0 mm 4 mps 760 mmHg 57%
20:00 +31°C° 0 mm 3 mps 760 mmHg 60%
21:00 +31°C° 0 mm 3 mps 760 mmHg 64%
22:00 +30°C° 0 mm 2 mps 760 mmHg 67%
23:00 +29°C° 0 mm 2 mps 761 mmHg 69%

Day after tomorrow, 1 August, Sunday

Time Temperature Precipitation Wind Pressure Humidity
00:00 +29°C° 0 mm 2 mps 761 mmHg 71%
01:00 +28°C° 0 mm 2 mps 761 mmHg 74%
02:00 +28°C° 0 mm 2 mps 761 mmHg 75%
03:00 +28°C° 0 mm 2 mps 761 mmHg 76%
04:00 +27°C° 0 mm 2 mps 760 mmHg 77%
05:00 +28°C° 0 mm 2 mps 761 mmHg 77%
06:00 +28°C° 0 mm 2 mps 761 mmHg 77%
07:00 +28°C° 0 mm 2 mps 761 mmHg 77%
08:00 +30°C° 0 mm 3 mps 761 mmHg 69%
09:00 +33°C° 0 mm 3 mps 762 mmHg 61%
10:00 +34°C° 0 mm 4 mps 762 mmHg 53%
11:00 +36°C° 0 mm 4 mps 762 mmHg 50%
12:00 +37°C° 0 mm 4 mps 761 mmHg 46%
13:00 +38°C° 0 mm 4 mps 761 mmHg 42%
14:00 +38°C° 0 mm 4 mps 760 mmHg 41%
15:00 +38°C° 0 mm 4 mps 760 mmHg 40%
16:00 +38°C° 0 mm 4 mps 760 mmHg 39%
17:00 +37°C° 0 mm 4 mps 760 mmHg 45%
18:00 +35°C° 0 mm 4 mps 760 mmHg 50%
19:00 +33°C° 0 mm 4 mps 760 mmHg 56%
20:00 +31°C° 0 mm 3 mps 760 mmHg 60%
21:00 +30°C° 0 mm 3 mps 761 mmHg 64%
22:00 +29°C° 0 mm 3 mps 761 mmHg 68%
23:00 +29°C° 0 mm 2 mps 761 mmHg 70%

2 August, Monday

Time Temperature Precipitation Wind Pressure Humidity
00:00 +28°C° 0 mm 2 mps 761 mmHg 73%
01:00 +28°C° 0 mm 1 mps 761 mmHg 75%
02:00 +28°C° 0 mm 2 mps 761 mmHg 76%
03:00 +28°C° 0 mm 2 mps 760 mmHg 78%
04:00 +27°C° 0 mm 2 mps 760 mmHg 79%
05:00 +28°C° 0 mm 2 mps 761 mmHg 79%
06:00 +28°C° 0 mm 2 mps 761 mmHg 79%
07:00 +28°C° 0 mm 2 mps 761 mmHg 79%
08:00 +30°C° 0 mm 3 mps 761 mmHg 71%
09:00 +33°C° 0 mm 3 mps 761 mmHg 63%
10:00 +34°C° 0 mm 3 mps 761 mmHg 55%
11:00 +35°C° 0 mm 4 mps 761 mmHg 51%
12:00 +37°C° 0 mm 4 mps 760 mmHg 46%
13:00 +38°C° 0 mm 4 mps 760 mmHg 41%
14:00 +39°C° 0 mm 5 mps 760 mmHg 40%
15:00 +39°C° 0 mm 5 mps 759 mmHg 39%
16:00 +39°C° 0 mm 5 mps 758 mmHg 38%
17:00 +36°C° 0 mm 4 mps 759 mmHg 44%
18:00 +35°C° 0 mm 4 mps 759 mmHg 50%
19:00 +33°C° 0 mm 3 mps 759 mmHg 56%
20:00 +31°C° 0.1 mm 3 mps 760 mmHg 63%
21:00 +29°C° 0.1 mm 3 mps 760 mmHg 69%
22:00 +28°C° 0.1 mm 3 mps 760 mmHg 76%
23:00 +28°C° 0 mm 3 mps 760 mmHg 77%

3 August, Tuesday

Time Temperature Precipitation Wind Pressure Humidity
00:00 +27°C° 0 mm 3 mps 759 mmHg 79%
01:00 +27°C° 0 mm 3 mps 759 mmHg 80%
02:00 +27°C° 0 mm 2 mps 759 mmHg 82%
03:00 +27°C° 0 mm 2 mps 759 mmHg 83%
04:00 +26°C° 0 mm 2 mps 759 mmHg 84%
05:00 +27°C° 0 mm 2 mps 759 mmHg 83%
06:00 +27°C° 0 mm 1 mps 760 mmHg 82%
07:00 +28°C° 0 mm 1 mps 760 mmHg 81%
08:00 +29°C° 0 mm 2 mps 760 mmHg 74%
09:00 +31°C° 0 mm 2 mps 760 mmHg 66%
10:00 +34°C° 0 mm 2 mps 761 mmHg 59%
11:00 +35°C° 0 mm 3 mps 760 mmHg 53%
12:00 +36°C° 0 mm 3 mps 760 mmHg 47%
13:00 +38°C° 0 mm 3 mps 759 mmHg 41%
14:00 +36°C° 0 mm 4 mps 759 mmHg 46%
15:00 +35°C° 0 mm 4 mps 759 mmHg 50%
16:00 +34°C° 0 mm 5 mps 759 mmHg 55%
17:00 +33°C° 0 mm 4 mps 759 mmHg 60%
18:00 +31°C° 0 mm 3 mps 759 mmHg 65%
19:00 +30°C° 0 mm 2 mps 759 mmHg 70%
20:00 +29°C° 0.1 mm 2 mps 760 mmHg 72%
21:00 +29°C° 0.1 mm 2 mps 760 mmHg 74%
22:00 +28°C° 0.1 mm 3 mps 760 mmHg 76%
23:00 +28°C° 0 mm 2 mps 760 mmHg 77%

4 August, Wednesday

Time Temperature Precipitation Wind Pressure Humidity
00:00 +27°C° 0 mm 2 mps 760 mmHg 78%
01:00 +27°C° 0 mm 2 mps 759 mmHg 78%
02:00 +27°C° 0 mm 2 mps 759 mmHg 79%
03:00 +27°C° 0 mm 2 mps 759 mmHg 79%
04:00 +27°C° 0 mm 2 mps 759 mmHg 80%
05:00 +27°C° 0 mm 2 mps 760 mmHg 79%
06:00 +27°C° 0 mm 2 mps 760 mmHg 79%
07:00 +27°C° 0 mm 2 mps 761 mmHg 79%
08:00 +28°C° 0 mm 2 mps 761 mmHg 73%
09:00 +30°C° 0 mm 3 mps 761 mmHg 66%
10:00 +31°C° 0 mm 3 mps 761 mmHg 60%
11:00 +33°C° 0 mm 3 mps 761 mmHg 56%
12:00 +34°C° 0 mm 3 mps 761 mmHg 52%
13:00 +35°C° 0 mm 3 mps 761 mmHg 48%
14:00 +35°C° 0 mm 3 mps 760 mmHg 48%
15:00 +35°C° 0 mm 3 mps 760 mmHg 49%
16:00 +36°C° 0 mm 3 mps 760 mmHg 49%
17:00 +34°C° 0.4 mm 2 mps 760 mmHg 56%
18:00 +31°C° 0.4 mm 2 mps 760 mmHg 63%
19:00 +29°C° 0.4 mm 2 mps 760 mmHg 70%
20:00 +29°C° 1.5 mm 2 mps 761 mmHg 74%
21:00 +28°C° 1.5 mm 2 mps 761 mmHg 78%
22:00 +27°C° 1.5 mm 2 mps 762 mmHg 82%
23:00 +27°C° 0.5 mm 2 mps 762 mmHg 85%
Show more